Location: Kott?ru
(16.6209°N, 80.6208°E)
Time: 14:14:59
(UTC+00:00)

Cosmos 1515 - Pass Details

Date: 18 September 2020
Orbit: 506 x 515 km, 82.5° (Epoch: 29 October)

Event Time Altitude Azimuth Distance (km) Brightness Sun altitude
Rises 23:42:21 0° 178° (S) 2,616 7.3 -11.3°
Reaches altitude 10° 23:44:29 10° 174° (S) 1,730 6.4 -10.8°
Maximum altitude 23:48:14 61° 94° (E) 582 4.3 -9.9°
Drops below altitude 10° 23:51:58 10° 13° (NNE) 1,728 6.6 -9.0°
Sets 23:54:06 0° 10° (N) 2,613 7.5 -8.5°
